Location: Wald
(31.7579°N, 86.6655°W)
Time: 23:59:31
(UTC+00:00)

Cosmos 1674 Rocket - Pass Details

Date: 14 July 2020
Orbit: 602 x 631 km, 82.5° (Epoch: 12 August)

Event Time Altitude Azimuth Distance (km) Brightness Sun altitude
Rises 09:14:09 0° 340° (NNW) 2,867 7.3 -18.1°
Reaches altitude 10° 09:16:36 10° 329° (NNW) 1,956 6.2 -17.7°
Maximum altitude 09:20:18 28° 270° (W) 1,133 4.5 -17.1°
Enters shadow 09:20:31 28° 264° (W) 1,137 4.4 -17.1°
